H1 CPF 2 NER 2023 10 14 9 287 01 glonass143 H2 2007501 9143 46805 2023 10 14 0 0 0 2023 10 17 23 45 0 900 1 1 0 0 0 1 H9 10 0 60231 0.00000 0 -14491531.355 -14119537.288 15556146.158 10 0 60231 900.00000 0 -12611163.928 -13287672.116 17769590.808 10 0 60231 1800.00000 0 -10435160.632 -12521566.148 19638453.508 10 0 60231 2700.00000 0 -8008182.744 -11868731.100 21126504.727 10 0 60231 3600.00000 0 -5384381.821 -11368463.139 22204886.001 10 0 60231 4500.00000 0 -2625394.169 -11050134.159 22852665.667 10 0 60231 5400.00000 0 201972.734 -10931916.509 23057243.163 10 0 60231 6300.00000 0 3028267.187 -11019994.535 22814594.436 10 0 60231 7200.00000 0 5784030.162 -11308296.023 22129353.776 10 0 60231 8100.00000 0 8402434.102 -11778755.154 21014730.252 10 0 60231 9000.00000 0 10821815.388 -12402096.480 19492259.801 10 0 60231 9900.00000 0 12987996.286 -13139107.735 17591396.955 10 0 60231 10800.00000 0 14856300.656 -13942348.826 15348953.136 10 0 60231 11700.00000 0 16393180.082 -14758225.904 12808391.366 10 0 60231 12600.00000 0 17577382.897 -15529343.821 10018990.095 10 0 60231 13500.00000 0 18400617.496 -16197038.192 7034891.599 10 0 60231 14400.00000 0 18867682.257 -16703980.290 3914052.884 10 0 60231 15300.00000 0 18996056.786 -16996744.436 717119.318 10 0 60231 16200.00000 0 18814971.859 -17028228.731 -2493756.960 10 0 60231 17100.00000 0 18363997.573 -16759825.816 -5656130.457 10 0 60231 18000.00000 0 17691209.742 -16163250.677 -8708483.200 10 0 60231 18900.00000 0 16851012.538 -15221946.895 -11591428.499 10 0 60231 19800.00000 0 15901710.093 -13932010.563 -14248873.323 10 0 60231 20700.00000 0 14902930.414 -12302591.541 -16629115.813 10 0 60231 21600.00000 0 13913011.194 -10355753.920 -18685855.986 10 0 60231 22500.00000 0 12986458.519 -8125800.450 -20379099.552 10 0 60231 23400.00000 0 12171586.247 -5658088.398 -21675937.082 10 0 60231 24300.00000 0 11508435.850 -3007385.678 -22551183.461 10 0 60231 25200.00000 0 11027064.438 -235835.372 -22987865.448 10 0 60231 26100.00000 0 10746272.890 2589386.904 -22977548.251 10 0 60231 27000.00000 0 10672827.278 5398625.603 -22520495.194 10 0 60231 27900.00000 0 10801205.798 8122402.027 -21625657.804 10 0 60231 28800.00000 0 11113881.273 10694065.208 -20310496.863 10 0 60231 29700.00000 0 11582126.692 13052327.231 -18600638.177 10 0 60231 30600.00000 0 12167309.202 15143578.220 -16529369.916 10 0 60231 31500.00000 0 12822617.484 16923885.438 -14136991.435 10 0 60231 32400.00000 0 13495149.144 18360594.195 -11470026.310 10 0 60231 33300.00000 0 14128269.660 19433464.942 -8580314.979 10 0 60231 34200.00000 0 14664142.938 20135300.299 -5524004.769 10 0 60231 35100.00000 0 15046326.363 20472037.186 -2360457.139 10 0 60231 36000.00000 0 15222320.516 20462301.618 848906.420 10 0 60231 36900.00000 0 15145965.706 20136446.233 4041797.115 10 0 60231 37800.00000 0 14779583.972 19535112.298 7156266.840 10 0 60231 38700.00000 0 14095776.035 18707377.705 10131907.870 10 0 60231 39600.00000 0 13078797.215 17708569.717 12911020.933 10 0 60231 40500.00000 0 11725454.087 16597834.983 15439729.220 10 0 60231 41400.00000 0 10045483.733 15435569.240 17669017.116 10 0 60231 42300.00000 0 8061399.006 14280814.623 19555674.064 10 0 60231 43200.00000 0 5807805.443 13188733.599 21063125.975 10 0 60231 44100.00000 0 3330217.234 12208264.964 22162138.860 10 0 60231 45000.00000 0 683420.387 11380059.629 22831381.748 10 0 60231 45900.00000 0 -2070550.267 10734782.048 23057838.621 10 0 60231 46800.00000 0 -4864737.670 10291847.951 22837061.755 10 0 60231 47700.00000 0 -7629797.636 10058650.879 22173261.646 10 0 60231 48600.00000 0 -10296638.741 10030309.806 21079231.565 10 0 60231 49500.00000 0 -12799058.757 10189948.500 19576107.641 10 0 60231 50400.00000 0 -15076269.203 10509495.236 17692968.329 10 0 60231 51300.00000 0 -17075203.953 10950969.694 15466280.050 10 0 60231 52200.00000 0 -18752516.340 11468203.441 12939198.660 10 0 60231 53100.00000 0 -20076181.782 12008922.028 10160739.384 10 0 60231 54000.00000 0 -21026639.102 12517101.191 7184830.472 10 0 60231 54900.00000 0 -21597422.726 12935497.771 4069268.408 10 0 60231 55800.00000 0 -21795259.176 13208248.127 874594.796 10 0 60231 56700.00000 0 -21639623.766 13283423.578 -2337083.116 10 0 60231 57600.00000 0 -21161776.274 13115433.858 -5503304.910 10 0 60231 58500.00000 0 -20403316.419 12667175.735 -8562478.146 10 0 60231 59400.00000 0 -19414320.491 11911834.552 -11455083.581 10 0 60231 60300.00000 0 -18251138.281 10834261.105 -14124840.153 10 0 60231 61200.00000 0 -16973943.939 9431864.287 -16519806.215 10 0 60231 62100.00000 0 -15644144.721 7714980.472 -18593394.954 10 0 60231 63000.00000 0 -14321757.494 5706702.821 -20305283.863 10 0 60231 63900.00000 0 -13062864.007 3442176.605 -21622200.357 10 0 60231 64800.00000 0 -11917252.322 967389.136 -22518568.352 10 0 60231 65700.00000 0 -10926343.639 -1662495.866 -22977003.483 10 0 60231 66600.00000 0 -10121491.440 -4385190.489 -22988647.705 10 0 60231 67500.00000 0 -9522723.924 -7133636.402 -22553337.217 10 0 60231 68400.00000 0 -9137981.857 -9838562.619 -21679600.867 10 0 60231 69300.00000 0 -8962882.997 -12431141.202 -20384489.421 10 0 60231 70200.00000 0 -8981022.011 -14845630.876 -18693239.299 10 0 60231 71100.00000 0 -9164792.289 -17021899.094 -16638777.484 10 0 60231 72000.00000 0 -9476694.067 -18907718.115 -14261077.364 10 0 60231 72900.00000 0 -9871072.846 -20460740.179 -11606378.097 10 0 60231 73800.00000 0 -10296214.025 -21650070.239 -8726282.765 10 0 60231 74700.00000 0 -10696704.619 -22457371.532 -5676752.985 10 0 60231 75600.00000 0 -11015961.801 -22877458.862 -2517019.708 10 0 60231 76500.00000 0 -11198820.949 -22918355.933 691568.428 10 0 60231 77400.00000 0 -11194073.528 -22600815.569 3886736.502 10 0 60231 78300.00000 0 -10956847.299 -21957324.085 7006491.137 10 0 60231 79200.00000 0 -10450728.040 -21030632.658 9990321.175 10 0 60231 80100.00000 0 -9649533.072 -19871878.254 12780367.844 10 0 60231 81000.00000 0 -8538661.499 -18538373.634 15322541.917 10 0 60231 81900.00000 0 -7115963.941 -17091159.513 17567566.601 10 0 60231 82800.00000 0 -5392094.585 -15592421.595 19471926.442 10 0 60231 83700.00000 0 -3390330.008 -14102880.479 20998704.613 10 0 60231 84600.00000 0 -1145861.248 -12679263.241 22118293.104 10 0 60231 85500.00000 0 1295412.559 -11371961.850 22808962.800 10 0 60232 0.00000 0 3878539.966 -10222975.670 23057283.019 10 0 60232 900.00000 0 6541556.509 -9264222.743 22858382.815 10 0 60232 1800.00000 0 9217820.868 -8516291.289 22216048.879 10 0 60232 2700.00000 0 11838557.044 -7987681.077 21142658.346 10 0 60232 3600.00000 0 14335494.963 -7674567.701 19658946.856 10 0 60232 4500.00000 0 16643502.294 -7561098.857 17793615.754 10 0 60232 5400.00000 0 18703098.767 -7620210.400 15582785.066 10 0 60232 6300.00000 0 20462748.864 -7814928.057 13069301.746 10 0 60232 7200.00000 0 21880837.543 -8100100.250 10301915.687 10 0 60232 8100.00000 0 22927246.505 -8424489.122 7334338.635 10 0 60232 9000.00000 0 23584464.858 -8733131.513 4224203.740 10 0 60232 9900.00000 0 23848187.330 -8969869.845 1031945.743 10 0 60232 10800.00000 0 23727374.657 -9079945.331 -2180376.286 10 0 60232 11700.00000 0 23243773.401 -9012542.934 -5350290.379 10 0 60232 12600.00000 0 22430915.364 -8723179.250 -8416132.960 10 0 60232 13500.00000 0 21332638.913 -8175830.954 -11318255.415 10 0 60232 14400.00000 0 20001194.797 -7344712.361 -14000191.602 10 0 60232 15300.00000 0 18495016.781 -6215625.498 -16409762.724 10 0 60232 16200.00000 0 16876251.514 -4786824.296 -18500097.462 10 0 60232 17100.00000 0 15208152.161 -3069355.101 -20230547.059 10 0 60232 18000.00000 0 13552445.887 -1086857.967 -21567477.388 10 0 60232 18900.00000 0 11966786.094 1125163.973 -22484922.632 10 0 60232 19800.00000 0 10502396.438 3520577.409 -22965088.152 10 0 60232 20700.00000 0 9202005.258 6044303.169 -22998693.099 10 0 60232 21600.00000 0 8098156.512 8634382.265 -22585146.584 10 0 60232 22500.00000 0 7211967.271 11224338.020 -21732554.389 10 0 60232 23400.00000 0 6552382.845 13745736.292 -20457556.451 10 0 60232 24300.00000 0 6115959.618 16130837.528 -18784998.582 10 0 60232 25200.00000 0 5887183.425 18315230.667 -16747444.946 10 0 60232 26100.00000 0 5839308.778 20240339.500 -14384540.936 10 0 60232 27000.00000 0 5935682.377 21855697.524 -11742238.881 10 0 60232 27900.00000 0 6131493.969 23120896.971 -8871901.747 10 0 60232 28800.00000 0 6375879.692 24007131.217 -5829302.364 10 0 60232 29700.00000 0 6614288.213 24498266.923 -2673537.857 10 0 60232 30600.00000 0 6791009.020 24591401.890 534119.460 10 0 60232 31500.00000 0 6851755.409 24296886.224 3731412.058 10 0 60232 32400.00000 0 6746192.601 23637806.872 6856304.760 10 0 60232 33300.00000 0 6430303.834 22648958.083 9848186.279 10 0 60232 34200.00000 0 5868494.215 21375341.735 12649041.404 10 0 60232 35100.00000 0 5035343.336 19870261.048 15204571.247 10 0 60232 36000.00000 0 3916932.442 18193087.884 17465240.230 10 0 60232 36900.00000 0 2511689.823 16406797.245 19387230.028 10 0 60232 37800.00000 0 830718.260 14575371.909 20933282.697 10 0 60232 38700.00000 0 -1102410.173 12761185.218 22073417.424 10 0 60232 39600.00000 0 -3252384.529 11022470.661 22785507.726 10 0 60232 40500.00000 0 -5573381.542 9410983.053 23055708.570 10 0 60232 41400.00000 0 -8010738.794 7969947.967 22878725.526 10 0 60232 42300.00000 0 -10503006.467 6732384.152 22257920.867 10 0 60232 43200.00000 0 -12984293.952 5719868.144 21205254.365 10 0 60232 44100.00000 0 -15386815.295 4941792.060 19741059.394 10 0 60232 45000.00000 0 -17643528.833 4395145.169 17893657.924 10 0 60232 45900.00000 0 -19690762.199 4064828.107 15698820.860 10 0 60232 46800.00000 0 -21470713.961 3924486.443 13199083.169 10 0 60232 47700.00000 0 -22933727.828 3937828.499 10442926.065 10 0 60232 48600.00000 0 -24040244.375 4060371.912 7483841.317 10 0 60232 49500.00000 0 -24762348.315 4241545.138 4379295.243 10 0 60232 50400.00000 0 -25084845.999 4427054.833 1189612.316 10 0 60232 51300.00000 0 -25005827.376 4561418.508 -2023199.821 10 0 60232 52200.00000 0 -24536688.313 4590554.468 -5196660.694 10 0 60232 53100.00000 0 -23701611.968 4464318.393 -8269038.394 10 0 60232 54000.00000 0 -22536530.855 4138877.928 -11180557.484 10 0 60232 54900.00000 0 -21087613.322 3578823.434 -13874568.995 10 0 60232 55800.00000 0 -19409338.372 2758924.210 -16298658.931 10 0 60232 56700.00000 0 -17562240.160 1665454.571 -18405673.028 10 0 60232 57600.00000 0 -15610417.411 297032.488 -20154637.439 10 0 60232 58500.00000 0 -13618912.738 -1335065.772 -21511557.189 10 0 60232 59400.00000 0 -11651072.096 -3207129.347 -22450076.965 10 0 60232 60300.00000 0 -9765995.098 -5283766.425 -22951991.617 10 0 60232 61200.00000 0 -8016182.828 -7519157.049 -23007596.822 10 0 60232 62100.00000 0 -6445481.099 -9858753.382 -22615873.534 10 0 60232 63000.00000 0 -5087404.463 -12241356.953 -21784503.053 10 0 60232 63900.00000 0 -3963910.067 -14601486.649 -20529712.787 10 0 60232 64800.00000 0 -3084671.444 -16871939.023 -18875956.000 10 0 60232 65700.00000 0 -2446881.197 -18986434.494 -16855431.923 10 0 60232 66600.00000 0 -2035589.373 -20882239.315 -14507455.713 10 0 60232 67500.00000 0 -1824561.745 -22502654.208 -11877690.568 10 0 60232 68400.00000 0 -1777620.450 -23799266.089 -9017257.016 10 0 60232 69300.00000 0 -1850409.128 -24733869.150 -5981736.814 10 0 60232 70200.00000 0 -1992506.934 -25279975.438 -2830091.022 10 0 60232 71100.00000 0 -2149801.164 -25423852.277 376486.537 10 0 60232 72000.00000 0 -2267017.436 -25165043.707 3575757.847 10 0 60232 72900.00000 0 -2290299.893 -24516354.804 6705647.986 10 0 60232 73800.00000 0 -2169731.913 -23503300.212 9705447.567 10 0 60232 74700.00000 0 -1861690.530 -22163040.650 12516986.915 10 0 60232 75600.00000 0 -1330934.906 -20542852.428 15085759.396 10 0 60232 76500.00000 0 -552340.546 -18698194.351 17361972.466 10 0 60232 77400.00000 0 487794.141 -16690452.921 19301506.603 10 0 60232 78300.00000 0 1790924.336 -14584459.866 20866764.225 10 0 60232 79200.00000 0 3345953.684 -12445885.100 22027392.950 10 0 60232 80100.00000 0 5129461.282 -10338613.183 22760869.891 10 0 60232 81000.00000 0 7106452.536 -8322211.689 23052936.333 10 0 60232 81900.00000 0 9231603.995 -6449595.931 22897874.775 10 0 60232 82800.00000 0 11450951.811 -4764986.313 22298623.099 10 0 60232 83700.00000 0 13703955.112 -3302242.422 21266723.490 10 0 60232 84600.00000 0 15925849.898 -2083642.461 19822106.564 10 0 60232 85500.00000 0 18050196.792 -1119158.277 17992714.122 10 0 60233 0.00000 0 20011517.374 -406255.810 15813967.092 10 0 60233 900.00000 0 21747910.945 69771.382 13328086.676 10 0 60233 1800.00000 0 23203540.171 334948.918 10583283.891 10 0 60233 2700.00000 0 24330885.209 425286.032 7632828.491 10 0 60233 3600.00000 0 25092668.879 385013.186 4534017.595 10 0 60233 4500.00000 0 25463372.685 264468.000 1347062.736 10 0 60233 5400.00000 0 25430279.085 117719.279 -1866082.791 10 0 60233 6300.00000 0 24993995.498 30.384 -5042933.069 10 0 60233 7200.00000 0 24168437.281 -34729.741 -8121690.986 10 0 60233 8100.00000 0 22980269.894 63382.847 -11042457.336 10 0 60233 9000.00000 0 21467833.396 338023.302 -13748403.235 10 0 60233 9900.00000 0 19679594.393 824462.343 -16186882.164 10 0 60233 10800.00000 0 17672190.598 1547848.684 -18310459.342 10 0 60233 11700.00000 0 15508150.299 2521904.189 -20077837.971 10 0 60233 12600.00000 0 13253382.683 3748107.982 -21454664.105 10 0 60233 13500.00000 0 10974544.358 5215404.911 -22414194.514 10 0 60233 14400.00000 0 8736392.369 6900451.575 -22937814.825 10 0 60233 15300.00000 0 6599234.269 8768390.351 -23015398.203 10 0 60233 16200.00000 0 4616581.390 10774119.669 -22645498.032 10 0 60233 17100.00000 0 2833102.646 12864007.908 -21835371.315 10 0 60233 18000.00000 0 1282963.366 14977979.644 -20600832.676 10 0 60233 18900.00000 0 -11382.658 17051887.423 -18965942.108 10 0 60233 19800.00000 0 -1039898.872 19020070.229 -16962532.713 10 0 60233 20700.00000 0 -1805141.450 20817991.910 -14629587.754 10 0 60233 21600.00000 0 -2321898.898 22384849.492 -12012479.199 10 0 60233 22500.00000 0 -2616312.608 23666042.464 -9162082.627 10 0 60233 23400.00000 0 -2724516.931 24615399.877 -6133785.856 10 0 60233 24300.00000 0 -2690857.536 25197072.258 -2986410.728 10 0 60233 25200.00000 0 -2565764.468 25387009.377 218930.793 10 0 60233 26100.00000 0 -2403370.757 25173962.290 3420023.675 10 0 60233 27000.00000 0 -2258978.001 24559968.060 6554756.750 10 0 60233 27900.00000 0 -2186476.621 23560297.297 9562325.945 10 0 60233 28800.00000 0 -2235830.174 22202867.105 12384410.382 10 0 60233 29700.00000 0 -2450730.207 20527144.352 14966298.713 10 0 60233 30600.00000 0 -2866520.793 18582585.300 17257944.189 10 0 60233 31500.00000 0 -3508480.374 16426676.815 19214928.528 10 0 60233 32400.00000 0 -4390533.506 14122660.629 20799316.613 10 0 60233 33300.00000 0 -5514447.100 11737035.052 21980386.221 10 0 60233 34200.00000 0 -6869545.548 9336937.442 22735219.383 10 0 60233 35100.00000 0 -8432957.627 6987515.454 23049144.580 10 0 60233 36000.00000 0 -10170386.050 4749395.292 22916021.621 10 0 60233 36900.00000 0 -12037368.906 2676351.187 22338363.861 10 0 60233 37800.00000 0 -13980981.841 813271.902 21327295.193 10 0 60233 38700.00000 0 -15941911.476 -805492.108 19902342.187 10 0 60233 39600.00000 0 -17856814.933 -2157332.873 18091064.625 10 0 60233 40500.00000 0 -19660868.170 -3232090.867 15928530.647 10 0 60233 41400.00000 0 -21290397.525 -4032233.842 13456645.623 10 0 60233 42300.00000 0 -22685484.898 -4572501.411 10723346.782 10 0 60233 43200.00000 0 -23792437.580 -4879030.669 7781678.364 10 0 60233 44100.00000 0 -24566018.906 -4987999.986 4688764.639 10 0 60233 45000.00000 0 -24971345.466 -4943848.498 1504700.505 10 0 60233 45900.00000 0 -24985370.321 -4797146.984 -1708618.727 10 0 60233 46800.00000 0 -24597888.895 -4602210.827 -4888705.221 10 0 60233 47700.00000 0 -23812024.252 -4414556.883 -7973699.983 10 0 60233 48600.00000 0 -22644170.488 -4288312.964 -10903583.149 10 0 60233 49500.00000 0 -21123395.925 -4273690.730 -13621348.746 10 0 60233 50400.00000 0 -19290330.757 -4414630.177 -16074120.230 10 0 60233 51300.00000 0 -17195585.632 -4746716.562 -18214184.397 10 0 60233 52200.00000 0 -14897767.448 -5295458.955 -19999923.128 10 0 60233 53100.00000 0 -12461175.633 -6075004.137 -21396624.585 10 0 60233 54000.00000 0 -9953275.361 -7087341.004 -22377158.130 10 0 60233 54900.00000 0 -7442053.396 -8322029.760 -22922500.081 10 0 60233 55800.00000 0 -4993366.855 -9756467.974 -23022100.425 10 0 60233 56700.00000 0 -2668395.196 -11356682.846 -22674083.809 10 0 60233 57600.00000 0 -521301.097 -13078616.945 -21885281.323 10 0 60233 58500.00000 0 1402803.056 -14869853.844 -20671092.834 10 0 60233 59400.00000 0 3069499.373 -16671711.649 -19055182.812 10 0 60233 60300.00000 0 4456252.093 -18421616.980 -17069015.783 10 0 60233 61200.00000 0 5553090.549 -20055660.090 -14751240.521 10 0 60233 62100.00000 0 6362760.587 -21511224.214 -12146935.088 10 0 60233 63000.00000 0 6900339.855 -22729579.032 -9306727.414 10 0 60233 63900.00000 0 7192334.838 -23658329.586 -6285808.688 10 0 60233 64800.00000 0 7275299.273 -24253617.989 -3142858.902 10 0 60233 65700.00000 0 7194033.642 -24481985.679 61094.380 10 0 60233 66600.00000 0 6999442.931 -24321818.182 3263861.530 10 0 60233 67500.00000 0 6746144.132 -23764311.940 6403297.416 10 0 60233 68400.00000 0 6489925.279 -22813922.851 9418505.394 10 0 60233 69300.00000 0 6285163.874 -21488277.851 12251015.332 10 0 60233 70200.00000 0 6182313.979 -19817553.407 14845912.913 10 0 60233 71100.00000 0 6225568.163 -17843346.870 17152898.721 10 0 60233 72000.00000 0 6450792.903 -15617087.704 19127257.020 10 0 60233 72900.00000 0 6883824.452 -13198054.528 20730716.209 10 0 60233 73800.00000 0 7539196.967 -10651079.969 21932185.008 10 0 60233 74700.00000 0 8419356.675 -8044038.088 22708350.881 10 0 60233 75600.00000 0 9514395.596 -5445217.828 23044129.745 10 0 60233 76500.00000 0 10802316.823 -2920690.454 22932958.717 10 0 60233 77400.00000 0 12249821.345 -531779.189 22376926.372 10 0 60233 78300.00000 0 13813584.777 1667265.072 21386737.852 10 0 60233 79200.00000 0 15441971.979 3631286.490 19981515.018 10 0 60233 80100.00000 0 17077119.240 5325862.234 18188434.778 10 0 60233 81000.00000 0 18657298.121 6728488.261 16042211.640 10 0 60233 81900.00000 0 20119463.022 7829264.078 13584433.481 10 0 60233 82800.00000 0 21401876.294 8631048.347 10862762.420 10 0 60233 83700.00000 0 22446701.083 9149079.216 7930015.428 10 0 60233 84600.00000 0 23202452.821 9410075.694 4843141.910 10 0 60233 85500.00000 0 23626205.788 9450858.286 1662117.861 10 0 60234 0.00000 0 23685461.049 9316547.539 -1551221.592 10 0 60234 900.00000 0 23359596.067 9058417.109 -4734389.908 10 0 60234 1800.00000 0 22640833.781 8731493.082 -7825468.649 10 0 60234 2700.00000 0 21534689.343 8392001.805 -10764319.991 10 0 60234 3600.00000 0 20059874.525 8094775.390 -13493763.496 10 0 60234 4500.00000 0 18247663.114 7890725.760 -15960695.057 10 0 60234 5400.00000 0 16140743.312 7824495.150 -18117125.337 10 0 60234 6300.00000 0 13791604.908 7932383.420 -19921116.990 10 0 60234 7200.00000 0 11260528.579 8240640.608 -21337602.191 10 0 60234 8100.00000 0 8613261.322 8764197.548 -22339064.607 10 0 60234 9000.00000 0 5918475.020 9505888.635 -22906072.746 10 0 60234 9900.00000 0 3245114.069 10456199.946 -23027654.674 10 0 60234 10800.00000 0 659742.324 11593553.634 -22701507.245 10 0 60234 11700.00000 0 -1776000.591 12885116.930 -21934036.209 10 0 60234 12600.00000 0 -4007728.352 14288101.895 -20740226.812 10 0 60234 13500.00000 0 -5990326.324 15751501.527 -19143347.668 10 0 60234 14400.00000 0 -7689576.354 17218189.420 -17174493.890 10 0 60234 15300.00000 0 -9083321.538 18627294.865 -14871978.458 10 0 60234 16200.00000 0 -10162123.926 19916753.717 -12280583.767 10 0 60234 17100.00000 0 -10929389.315 21025927.880 -9450687.943 10 0 60234 18000.00000 0 -11400955.647 21898183.324 -6437283.057 10 0 60234 18900.00000 0 -11604164.009 22483318.253 -3298904.487 10 0 60234 19800.00000 0 -11576452.932 22739739.333 -96492.438 10 0 60234 20700.00000 0 -11363536.609 22636294.472 3107791.976 10 0 60234 21600.00000 0 -11017245.065 22153685.124 6251772.833 10 0 60234 22500.00000 0 -10593118.358 21285398.786 9274464.122 10 0 60234 23400.00000 0 -10147856.972 20038122.517 12117249.605 10 0 60234 24300.00000 0 -9736736.415 18431620.077 14725015.064 10 0 60234 25200.00000 0 -9411095.196 16498077.602 17047211.327 10 0 60234 26100.00000 0 -9216002.051 14280944.873 19038827.929 10 0 60234 27000.00000 0 -9188200.519 11833320.010 20661259.266 10 0 60234 27900.00000 0 -9354417.228 9215944.178 21883047.197 10 0 60234 28800.00000 0 -9730104.941 6494888.855 22680486.474 10 0 60234 29700.00000 0 -10318673.298 3739030.702 23038081.918 10 0 60234 30600.00000 0 -11111239.915 1017417.638 22948848.978 10 0 60234 31500.00000 0 -12086912.944 -1603365.777 22414451.977 10 0 60234 32400.00000 0 -13213594.140 -4061725.618 21445177.294 10 0 60234 33300.00000 0 -14449269.929 -6303374.783 20059741.503 10 0 60234 34200.00000 0 -15743737.518 -8283342.861 18284937.476 10 0 60234 35100.00000 0 -17040694.881 -9967596.957 16155124.372 10 0 60234 36000.00000 0 -18280107.952 -11334206.593 13711570.337 10 0 60234 36900.00000 0 -19400756.357 -12374004.573 11001659.675 10 0 60234 37800.00000 0 -20342851.118 -13090716.517 8077979.018 10 0 60234 38700.00000 0 -21050614.187 -13500554.028 4997299.552 10 0 60234 39600.00000 0 -21474710.784 -13631288.851 1819474.822 10 0 60234 40500.00000 0 -21574431.282 -13520847.461 -1393724.448 10 0 60234 41400.00000 0 -21319529.603 -13215485.850 -4579815.537 10 0 60234 42300.00000 0 -20691639.376 -12767622.256 -7676824.775 10 0 60234 43200.00000 0 -19685206.866 -12233420.254 -10624499.933 10 0 60234 44100.00000 0 -18307900.109 -11670225.311 -13365489.475 10 0 60234 45000.00000 0 -16580475.907 -11133964.229 -15846464.870 10 0 60234 45900.00000 0 -14536109.346 -10676618.383 -18019163.433 10 0 60234 46800.00000 0 -12219213.237 -10343878.439 -19841330.938 10 0 60234 47700.00000 0 -9683796.439 -10173080.390 -21277545.390 10 0 60234 48600.00000 0 -6991429.397 -10191510.557 -22299905.963 10 0 60234 49500.00000 0 -4208901.544 -10415151.467 -22888573.915 10 0 60234 50400.00000 0 -1405668.091 -10847921.657 -23032155.302 10 0 60234 51300.00000 0 1348807.748 -11481441.472 -22727918.499 10 0 60234 52200.00000 0 3987706.889 -12295334.738 -21981842.701 10 0 60234 53100.00000 0 6449391.029 -13258053.466 -20808496.867 10 0 60234 54000.00000 0 8679719.041 -14328190.823 -19230751.716 10 0 60234 54900.00000 0 10634047.658 -15456226.992 -17279330.614 10 0 60234 55800.00000 0 12278834.223 -16586634.352 -14992208.155 10 0 60234 56700.00000 0 13592776.019 -17660253.280 -12413868.275 10 0 60234 57600.00000 0 14567440.103 -18616838.464 -9594436.329 10 0 60234 58500.00000 0 15207358.890 -19397668.382 -6588702.190 10 0 60234 59400.00000 0 15529589.147 -19948107.951 -3455053.485 10 0 60234 60300.00000 0 15562754.540 -20220016.282 -254339.913 10 0 60234 61200.00000 0 15345613.510 -20173898.034 2951308.966 10 0 60234 62100.00000 0 14925214.092 -19780707.666 6099689.328 10 0 60234 63000.00000 0 14354714.539 -19023230.546 9129728.433 10 0 60234 63900.00000 0 13690962.382 -17896982.704 11982666.288 10 0 60234 64800.00000 0 12991934.537 -16410591.199 14603190.781 10 0 60234 65700.00000 0 12314146.507 -14585638.831 16940504.632 10 0 60234 66600.00000 0 11710139.803 -12455979.200 18949303.939 10 0 60234 67500.00000 0 11226153.099 -10066550.077 20590650.024 10 0 60234 68400.00000 0 10900074.727 -7471733.703 21832718.480 10 0 60234 69300.00000 0 10759762.221 -4733331.265 22651411.625 10 0 60234 70200.00000 0 10821799.231 -1918234.557 23030823.177 10 0 60234 71100.00000 0 11090741.909 904109.840 22963546.637 10 0 60234 72000.00000 0 11558886.567 3664339.944 22450821.576 10 0 60234 72900.00000 0 12206568.797 6295813.206 21502514.900 10 0 60234 73800.00000 0 13002982.184 8737128.730 20136937.004 10 0 60234 74700.00000 0 13907483.145 10934433.207 18380495.669 10 0 60234 75600.00000 0 14871328.028 12843415.636 16267193.477 10 0 60234 76500.00000 0 15839770.430 14430908.467 13837977.442 10 0 60234 77400.00000 0 16754431.238 15676028.857 11139952.485 10 0 60234 78300.00000 0 17555842.124 16570812.686 8225473.114 10 0 60234 79200.00000 0 18186055.434 17120315.023 5151130.310 10 0 60234 80100.00000 0 18591210.158 17342173.017 1976652.989 10 0 60234 81000.00000 0 18723945.040 17265649.890 -1236254.595 10 0 60234 81900.00000 0 18545556.010 16930200.634 -4425116.575 10 0 60234 82800.00000 0 18027805.605 16383620.462 -7527906.277 10 0 60234 83700.00000 0 17154306.663 15679854.810 -10484259.545 10 0 60234 84600.00000 0 15921420.506 14876564.204 -13236656.154 10 0 60234 85500.00000 0 14338630.417 14032547.742 -15731545.418 99